Other Surface Observations
Issued by NWS

Current Version | Previous Version | Text Only | Print | Product List | Glossary On
Versions: 1 2 3 4 5 6 7 8 9 10 11 12 13 14 15 16 17 18 19 20 21 22 23 24 25 26 27 28 29 30 31 32 33 34 35 36 37 38 39 40 41 42 43 44 45 46 47 48 49 50
000
SXUS52 KTAE 041318
OSOTAE
OSOTAE
North Florida/South Alabama/Southwest Georgia Weather Roundup
National Weather Service Tallahassee Florida
900 AM EDT SAT JUL 04 2015

Note: "fair" indicates few or no clouds below 12,000 feet with no
significant weather and/or obstructions to visibility.

!FLZ017-115-028-034-025-041400
...North Florida...

CITY           SKY/WX    TMP DP  RH WIND       PRES   REMARKS
TALLAHASSEE    PTSUNNY   80  76  87 CALM      30.10R
APALACHICOLA   SUNNY     87  76  69 SW8       30.09R HX  97
PERRY            N/A     81  81 100 CALM      30.11S HX  92
CROSS CITY       N/A     81  74  79 S3        30.11R
JACKSONVILLE   PTSUNNY   75  70  84 W5        30.11R
$$

!FLZ112-006-005-002-011-041400
...Florida Panhandle...

CITY           SKY/WX    TMP DP  RH WIND       PRES   REMARKS
MARIANNA       MOSUNNY   79  78  97 S3        30.09R
BONIFAY        FAIR      80  77  90 VRB3      30.10R
PANAMA CITY NW FAIR      84  77  79 SW13      30.08R HX  94
TYNDALL AFB    MOSUNNY   83  77  81 SW9       30.09R HX  93
TYND DRONE APT FAIR      83  78  85 SW7       30.09R HX  94
DE FUNIAK SPR  FAIR      79  77  92 SW3       30.10R
EGLIN AFB      PTSUNNY   84  75  74 SW8       30.09R HX  91
DESTIN         MOSUNNY   84  76  76 SW5       30.09R HX  93
HURLBURT       PTSUNNY   85  74  69 W8        30.07R HX  93
CRESTVIEW      PTSUNNY   81  77  88 SW5       30.10R
PENSACOLA      PTSUNNY   82  76  81 W6        30.08R
$$

!ALZ063-066-041400
...South Alabama...

CITY           SKY/WX    TMP DP  RH WIND       PRES   REMARKS
DOTHAN         PTSUNNY   80  77  90 SW9         N/A
OZARK CAIRNS   PTSUNNY   79  79 100 SW5       30.09S
FT RUCKER HELI PTSUNNY   78  76  93 S3        30.09R
RUCKER HELI 3  NOT AVBL
RUCKER HELI 2  PTSUNNY   76  32  20 VRB3      30.09S
FLORALA APT    CLOUDY    79  76  90 VRB5      30.11R
ANDALUSIA      CLOUDY    82  76  81 W3        30.09R
TROY           CLOUDY    79  76  90 SW6       30.09S
EUFALA         CLOUDY    78  71  79 CALM      30.08S
MOBILE         CLOUDY    80  77  90 SW6       30.09R
$$

!GAZ120>161-041400
...Southwest and South Central Georgia...

CITY           SKY/WX    TMP DP  RH WIND       PRES   REMARKS
THOMASVILLE    CLOUDY    77  75  94 SW3       30.13R
BAINBRIDGE     CLOUDY    79  77  94 CALM      30.11R FOG
MOODY AFB      MOSUNNY   81  75  81 SW6       30.10R
VALDOSTA       CLOUDY    77  77 100 S3        30.12R
MOULTRIE       CLOUDY    77  75  94 W3        30.12R FOG
BLAKELY        CLOUDY    81  81 100 SW6       30.10R HX  91
ALBANY         PTSUNNY   79  75  87 CALM      30.12R
TIFTON         CLOUDY    77  75  96 SW7       30.11R
FITZGERALD     PTSUNNY   79  78  95 SW3       30.13R
CORDELE        FAIR      80  74  82 S6        30.11R
AMERICUS       FAIR      77  68  73 SW3       30.11R
HOMERVILLE     FAIR      79  79 100 SW3       30.12S
$$

!GMZ750-755-770-775-041400
...Coastal and Buoy Obs...

STATION/POSITION TIME  TEMP    WIND        PRES    VSBY  WAVE
                       AIR SEA DIR/SP/G                  HT/PER
                 (UTC) (F)     (DEG/KT/KT) (MB)    (MI)  (FT/S)
KEATON BEACH     1300   83     250/  6/  7 1019.8R
CEDAR KEY        1300   85     210/  6/  8 1020.1R
C TOWER          1300   83     210/  6/  7 1019.3R
APALACHICOLA BUO 1250   85 85  200/  4/  6 1019.3R         1/ 8
PANAMA CITY BUOY 1250   84 84  210/  8/  8 1019.2R         2/ 5
MOBILE BUOY      1250   84 84  210/ 12/ 14 1018.6R         2/ 4
ORANGE BCH AL BU 1250   84 83  240/ 14/ 16 1017.7R         2/ 4
$$



USA.gov is the U.S. government's official web portal to all federal, state and local government web resources and services.